N2PT -KSAN

Flight info

Callsign N2PT
Flight time N/A
Altitude VFR
Route
Aircraft P28B/L-VGD/C

Departure

Time N/A
Airport -

Arrival

Time 2026-04-25 23:08
Airport San Diego International Airport (KSAN)
Time Latitude Longitude Altitude Speed Heading
2026-04-25 23:08 32.73447 -117.18594 22 ft 0 kts 15°
2026-04-25 23:12 32.73449 -117.18588 22 ft 10 kts 111°
2026-04-25 23:12 32.73350 -117.18469 23 ft 22 kts 105°
2026-04-25 23:12 32.73305 -117.18276 21 ft 25 kts 109°
2026-04-25 23:12 32.73258 -117.18088 22 ft 23 kts 105°
2026-04-25 23:13 32.73216 -117.17908 20 ft 22 kts 105°
2026-04-25 23:13 32.73175 -117.17743 22 ft 20 kts 109°
2026-04-25 23:13 32.73137 -117.17591 21 ft 19 kts 127°
2026-04-25 23:13 32.73091 -117.17548 21 ft 0 kts 142°
2026-04-25 23:18 32.73061 -117.17528 21 ft 19 kts 167°
2026-04-25 23:18 32.73023 -117.17598 21 ft 0 kts 285°
2026-04-25 23:20 32.73038 -117.17658 21 ft 33 kts 285°
2026-04-25 23:20 32.73153 -117.18141 96 ft 78 kts 282°
2026-04-25 23:20 32.73329 -117.18810 343 ft 93 kts 283°
2026-04-25 23:20 32.73531 -117.19561 630 ft 101 kts 283°
2026-04-25 23:21 32.73746 -117.20393 868 ft 111 kts 280°
2026-04-25 23:21 32.73895 -117.21350 842 ft 129 kts 284°
2026-04-25 23:21 32.74590 -117.21977 1026 ft 135 kts 342°
2026-04-25 23:21 32.75433 -117.21544 1077 ft 148 kts 73°
2026-04-25 23:22 32.75284 -117.20373 1190 ft 143 kts 108°
2026-04-25 23:22 32.75023 -117.19234 1379 ft 144 kts 107°
2026-04-25 23:22 32.74743 -117.18025 1321 ft 157 kts 108°
2026-04-25 23:23 32.74166 -117.15875 1521 ft 98 kts 151°
2026-04-25 23:23 32.73595 -117.15819 1275 ft 84 kts 203°
2026-04-25 23:23 32.73055 -117.16302 837 ft 101 kts 239°
2026-04-25 23:23 32.72945 -117.17160 362 ft 113 kts 274°
2026-04-25 23:24 32.73130 -117.18026 91 ft 104 kts 282°
2026-04-25 23:24 32.73311 -117.18756 7 ft 81 kts 283°
2026-04-25 23:24 32.73470 -117.19379 284 ft 78 kts 282°
2026-04-25 23:24 32.73666 -117.20007 613 ft 86 kts 285°
2026-04-25 23:25 32.73898 -117.20711 858 ft 99 kts 285°
2026-04-25 23:25 32.74077 -117.21565 922 ft 112 kts 279°
2026-04-25 23:25 32.74265 -117.22470 1083 ft 115 kts 281°
2026-04-25 23:25 32.74726 -117.23256 1249 ft 130 kts 331°
2026-04-25 23:26 32.75649 -117.23062 1291 ft 144 kts 52°
2026-04-25 23:26 32.75669 -117.21953 1380 ft 127 kts 104°
2026-04-25 23:26 32.75522 -117.21051 1332 ft 98 kts 105°
2026-04-25 23:26 32.75395 -117.20320 1344 ft 91 kts 107°
2026-04-25 23:27 32.75247 -117.19481 1371 ft 110 kts 105°
2026-04-25 23:27 32.75086 -117.18550 1402 ft 126 kts 105°
2026-04-25 23:27 32.74892 -117.17489 1408 ft 138 kts 104°
2026-04-25 23:27 32.74731 -117.16373 1552 ft 135 kts 99°
2026-04-25 23:28 32.74553 -117.15269 1666 ft 143 kts 110°
2026-04-25 23:28 32.74044 -117.14273 1450 ft 149 kts 159°
2026-04-25 23:28 32.73100 -117.14489 1266 ft 138 kts 220°
2026-04-25 23:28 32.72719 -117.15433 951 ft 123 kts 263°
2026-04-25 23:29 32.72761 -117.16412 558 ft 114 kts 275°
2026-04-25 23:29 32.72955 -117.17295 238 ft 107 kts 281°
2026-04-25 23:29 32.73143 -117.18091 51 ft 91 kts 282°
2026-04-25 23:29 32.73299 -117.18725 14 ft 68 kts 292°
2026-04-25 23:30 32.73396 -117.19084 19 ft 26 kts 323°
2026-04-25 23:30 32.73468 -117.19061 17 ft 0 kts 45°
2026-04-25 23:31 32.73479 -117.19000 16 ft 20 kts 111°